EHC05 EHLE-EHRD

Flight info

Callsign EHC05
Flight time N/A
Altitude 1200
Route PAM RTM
Aircraft EC35/L-SBGRY/L

Departure

Time 2026-04-12 19:15
Airport Lelystad Airport (EHLE)

Arrival

Time N/A
Airport Rotterdam The Hague Airport (EHRD)
Time Latitude Longitude Altitude Speed Heading
2026-04-12 18:50 52.45308 5.51913 -7 ft 0 kts 55°
2026-04-12 19:10 52.45308 5.51914 -4 ft 0 kts 56°
2026-04-12 19:10 52.45325 5.51870 6 ft 4 kts 237°
2026-04-12 19:10 52.45308 5.51821 12 ft 13 kts 217°
2026-04-12 19:11 52.45260 5.51736 16 ft 13 kts 216°
2026-04-12 19:11 52.45228 5.51642 15 ft 6 kts 321°
2026-04-12 19:11 52.45256 5.51591 1 ft 3 kts 326°
2026-04-12 19:11 52.45262 5.51582 1 ft 2 kts 324°
2026-04-12 19:12 52.45261 5.51584 3 ft 1 kts 329°
2026-04-12 19:12 52.45260 5.51586 4 ft 2 kts 322°
2026-04-12 19:12 52.45265 5.51588 4 ft 3 kts 306°
2026-04-12 19:12 52.45263 5.51591 6 ft 1 kts 310°
2026-04-12 19:13 52.45265 5.51593 6 ft 0 kts 301°
2026-04-12 19:13 52.45265 5.51595 6 ft 0 kts 303°
2026-04-12 19:13 52.45264 5.51595 7 ft 0 kts 303°
2026-04-12 19:14 52.45265 5.51597 7 ft 0 kts 302°
2026-04-12 19:14 52.45274 5.51580 26 ft 10 kts 316°
2026-04-12 19:14 52.45322 5.51506 14 ft 7 kts 265°
2026-04-12 19:14 52.45302 5.51423 46 ft 27 kts 222°
2026-04-12 19:15 52.45034 5.50936 129 ft 79 kts 218°
2026-04-12 19:15 52.44661 5.50215 414 ft 86 kts 221°
2026-04-12 19:15 52.44248 5.49503 689 ft 89 kts 214°
2026-04-12 19:15 52.43865 5.49140 896 ft 84 kts 191°
2026-04-12 19:16 52.43301 5.49279 1005 ft 84 kts 148°
2026-04-12 19:16 52.42959 5.50038 1080 ft 88 kts 107°
2026-04-12 19:16 52.42888 5.51069 1079 ft 91 kts 99°
2026-04-12 19:16 52.42775 5.52090 1074 ft 91 kts 103°
2026-04-12 19:17 52.42578 5.53053 1070 ft 90 kts 124°
2026-04-12 19:17 52.42082 5.53675 1088 ft 90 kts 141°
2026-04-12 19:17 52.41591 5.54271 1079 ft 88 kts 141°
2026-04-12 19:17 52.41107 5.54880 1086 ft 87 kts 140°
2026-04-12 19:18 52.40643 5.55492 1081 ft 86 kts 139°
2026-04-12 19:18 52.40186 5.56127 1078 ft 85 kts 137°
2026-04-12 19:18 52.39750 5.56761 1083 ft 85 kts 136°
2026-04-12 19:18 52.39318 5.57426 1085 ft 85 kts 134°
2026-04-12 19:19 52.38894 5.58090 1083 ft 85 kts 137°
2026-04-12 19:19 52.38400 5.58599 1074 ft 83 kts 156°
2026-04-12 19:19 52.37839 5.58683 1082 ft 82 kts 182°
2026-04-12 19:19 52.37835 5.58682 1082 ft 82 kts 182°
2026-04-12 19:21 52.37563 5.58556 1082 ft 82 kts 193°
2026-04-12 19:21 52.37146 5.57902 1054 ft 90 kts 237°
2026-04-12 19:21 52.37119 5.57150 1054 ft 98 kts 271°